When you browse on this site, cookies collect data to enhance your experience and personalize the content and advertising you see.
Visit our Privacy Policy to learn more. By continuing to use the site, you agree to this use of cookies and data.
  • en France
  • Liste des pays
  • À 7 jours
  • Température de l'eau
  • Carte météo
  • Widgets météo
  • user-avatar
    Se connecter

    Météo par heure à Suhaya Orlica

    Ce jour, 24 Février, Lundi

    Heure Température Précipitation Vent Pression Humidité
    00:00 -2°C° 0 mm 4 m/s 735 mmHg 88%
    01:00 -2°C° 0 mm 4 m/s 735 mmHg 89%
    02:00 -1°C° 0 mm 3 m/s 734 mmHg 87%
    03:00 -1°C° 0 mm 3 m/s 734 mmHg 87%
    04:00 -2°C° 0 mm 3 m/s 734 mmHg 88%
    05:00 -2°C° 0 mm 3 m/s 733 mmHg 88%
    06:00 -2°C° 0 mm 3 m/s 733 mmHg 87%
    07:00 -1°C° 0 mm 2 m/s 733 mmHg 87%
    08:00 -1°C° 0 mm 2 m/s 733 mmHg 86%
    09:00 +1°C° 0 mm 2 m/s 733 mmHg 84%
    10:00 +2°C° 0 mm 1 m/s 732 mmHg 81%
    11:00 +3°C° 0 mm 1 m/s 732 mmHg 79%
    12:00 +3°C° 0 mm 1 m/s 732 mmHg 79%
    13:00 +2°C° 0 mm 2 m/s 732 mmHg 79%
    14:00 +3°C° 0 mm 2 m/s 731 mmHg 79%
    15:00 +2°C° 0 mm 2 m/s 732 mmHg 82%
    16:00 +1°C° 0 mm 2 m/s 732 mmHg 85%
    17:00 +1°C° 0 mm 2 m/s 732 mmHg 88%
    18:00 0°C° 0 mm 3 m/s 732 mmHg 87%
    19:00 0°C° 0 mm 3 m/s 733 mmHg 86%
    20:00 -1°C° 0 mm 3 m/s 734 mmHg 85%
    21:00 -2°C° 0 mm 4 m/s 734 mmHg 84%
    22:00 -2°C° 0 mm 5 m/s 734 mmHg 84%
    23:00 -2°C° 0 mm 5 m/s 734 mmHg 84%

    Demain, 25 Février, Mardi

    Heure Température Précipitation Vent Pression Humidité
    00:00 -2°C° 0 mm 5 m/s 735 mmHg 82%
    01:00 -3°C° 0 mm 6 m/s 735 mmHg 80%
    02:00 -4°C° 0 mm 6 m/s 736 mmHg 78%
    03:00 -4°C° 0 mm 6 m/s 736 mmHg 77%
    04:00 -4°C° 0 mm 6 m/s 737 mmHg 76%
    05:00 -5°C° 0 mm 6 m/s 737 mmHg 75%
    06:00 -4°C° 0 mm 6 m/s 737 mmHg 75%
    07:00 -4°C° 0 mm 5 m/s 738 mmHg 75%
    08:00 -4°C° 0 mm 5 m/s 738 mmHg 75%
    09:00 -2°C° 0 mm 5 m/s 738 mmHg 70%
    10:00 -2°C° 0 mm 5 m/s 738 mmHg 66%
    11:00 -1°C° 0 mm 5 m/s 738 mmHg 61%
    12:00 0°C° 0 mm 5 m/s 738 mmHg 59%
    13:00 0°C° 0 mm 4 m/s 739 mmHg 58%
    14:00 +1°C° 0 mm 4 m/s 739 mmHg 56%
    15:00 0°C° 0 mm 4 m/s 739 mmHg 61%
    16:00 0°C° 0 mm 3 m/s 738 mmHg 66%
    17:00 -1°C° 0 mm 3 m/s 738 mmHg 71%
    18:00 -1°C° 0 mm 3 m/s 738 mmHg 75%
    19:00 -2°C° 0 mm 3 m/s 738 mmHg 78%
    20:00 -3°C° 0 mm 4 m/s 738 mmHg 81%
    21:00 -3°C° 0 mm 4 m/s 738 mmHg 82%
    22:00 -4°C° 0 mm 5 m/s 737 mmHg 84%
    23:00 -4°C° 0 mm 5 m/s 737 mmHg 85%

    Après-demain, 26 Février, Mercredi

    Heure Température Précipitation Vent Pression Humidité
    00:00 -2°C° 0.1 mm 5 m/s 736 mmHg 88%
    01:00 -3°C° 0.1 mm 6 m/s 736 mmHg 91%
    02:00 -3°C° 0.1 mm 6 m/s 735 mmHg 95%
    03:00 -2°C° 0 mm 6 m/s 735 mmHg 94%
    04:00 -2°C° 0 mm 6 m/s 734 mmHg 94%
    05:00 -1°C° 0 mm 6 m/s 733 mmHg 94%
    06:00 -1°C° 0 mm 6 m/s 733 mmHg 94%
    07:00 -1°C° 0 mm 6 m/s 733 mmHg 94%
    08:00 0°C° 0 mm 5 m/s 733 mmHg 94%
    09:00 -1°C° 0 mm 6 m/s 733 mmHg 94%
    10:00 +1°C° 0 mm 6 m/s 732 mmHg 94%
    11:00 +1°C° 0 mm 6 m/s 732 mmHg 94%
    12:00 +1°C° 0.4 mm 6 m/s 732 mmHg 93%
    13:00 +1°C° 0.4 mm 6 m/s 732 mmHg 93%
    14:00 -1°C° 0.4 mm 6 m/s 732 mmHg 93%
    15:00 -1°C° 0.1 mm 6 m/s 732 mmHg 93%
    16:00 0°C° 0.1 mm 5 m/s 732 mmHg 94%
    17:00 0°C° 0.1 mm 4 m/s 732 mmHg 94%
    18:00 0°C° 0 mm 4 m/s 732 mmHg 95%
    19:00 0°C° 0 mm 4 m/s 733 mmHg 95%
    20:00 +1°C° 0 mm 3 m/s 733 mmHg 96%
    21:00 +1°C° 0.4 mm 3 m/s 732 mmHg 96%
    22:00 +1°C° 0.4 mm 3 m/s 732 mmHg 96%
    23:00 +1°C° 0.4 mm 3 m/s 732 mmHg 96%

    27 Février, Jeudi

    Heure Température Précipitation Vent Pression Humidité
    00:00 +1°C° 0.6 mm 3 m/s 731 mmHg 96%
    01:00 +1°C° 0.6 mm 3 m/s 731 mmHg 96%
    02:00 0°C° 0.6 mm 4 m/s 731 mmHg 96%
    03:00 0°C° 0.4 mm 4 m/s 730 mmHg 96%
    04:00 0°C° 0.4 mm 4 m/s 730 mmHg 96%
    05:00 +1°C° 0.4 mm 5 m/s 730 mmHg 96%
    06:00 +1°C° 0 mm 5 m/s 730 mmHg 96%
    07:00 +1°C° 0 mm 5 m/s 730 mmHg 96%
    08:00 +1°C° 0 mm 5 m/s 730 mmHg 96%
    09:00 +1°C° 0.9 mm 5 m/s 730 mmHg 96%
    10:00 +1°C° 0.9 mm 4 m/s 730 mmHg 97%
    11:00 +1°C° 0.9 mm 4 m/s 730 mmHg 97%
    12:00 +1°C° 0.8 mm 4 m/s 730 mmHg 97%
    13:00 +2°C° 0.8 mm 3 m/s 730 mmHg 97%
    14:00 +2°C° 0.8 mm 3 m/s 730 mmHg 97%
    15:00 +2°C° 0.2 mm 3 m/s 730 mmHg 97%
    16:00 +2°C° 0.2 mm 3 m/s 730 mmHg 97%
    17:00 +2°C° 0.2 mm 3 m/s 730 mmHg 97%
    18:00 +2°C° 0 mm 3 m/s 731 mmHg 97%
    19:00 +3°C° 0 mm 2 m/s 731 mmHg 97%
    20:00 +3°C° 0 mm 2 m/s 732 mmHg 97%
    21:00 +2°C° 0 mm 2 m/s 732 mmHg 96%
    22:00 +2°C° 0 mm 2 m/s 732 mmHg 96%
    23:00 +2°C° 0 mm 2 m/s 732 mmHg 95%

    28 Février, Vendredi

    Heure Température Précipitation Vent Pression Humidité
    00:00 +1°C° 0 mm 2 m/s 731 mmHg 95%
    01:00 +2°C° 0 mm 1 m/s 731 mmHg 94%
    02:00 +1°C° 0 mm 1 m/s 731 mmHg 94%
    03:00 -1°C° 0.1 mm 2 m/s 730 mmHg 95%
    04:00 -1°C° 0.1 mm 2 m/s 730 mmHg 95%
    05:00 -1°C° 0.1 mm 3 m/s 729 mmHg 95%
    06:00 -2°C° 1.4 mm 4 m/s 729 mmHg 96%
    07:00 -2°C° 1.4 mm 4 m/s 729 mmHg 97%
    08:00 -2°C° 1.4 mm 5 m/s 728 mmHg 97%
    09:00 -3°C° 1.2 mm 6 m/s 728 mmHg 97%
    10:00 -3°C° 1.2 mm 6 m/s 728 mmHg 97%
    11:00 -3°C° 1.2 mm 6 m/s 728 mmHg 97%
    12:00 -4°C° 1 mm 7 m/s 728 mmHg 96%
    13:00 -5°C° 1 mm 8 m/s 728 mmHg 95%
    14:00 -6°C° 1 mm 8 m/s 728 mmHg 94%
    15:00 -6°C° 0.1 mm 7 m/s 729 mmHg 90%
    16:00 -5°C° 0.1 mm 6 m/s 730 mmHg 87%
    17:00 -5°C° 0.1 mm 6 m/s 730 mmHg 83%
    18:00 -6°C° 0 mm 6 m/s 731 mmHg 83%
    19:00 -8°C° 0 mm 6 m/s 732 mmHg 83%
    20:00 -9°C° 0 mm 6 m/s 733 mmHg 82%
    21:00 -9°C° 0 mm 6 m/s 733 mmHg 83%
    22:00 -9°C° 0 mm 6 m/s 734 mmHg 83%
    23:00 -9°C° 0 mm 6 m/s 734 mmHg 83%

    29 Février, Samedi

    Heure Température Précipitation Vent Pression Humidité
    00:00 -10°C° 0 mm 6 m/s 734 mmHg 82%
    01:00 -10°C° 0 mm 6 m/s 734 mmHg 81%
    02:00 -10°C° 0 mm 6 m/s 734 mmHg 80%
    03:00 -10°C° 0 mm 6 m/s 735 mmHg 80%
    04:00 -10°C° 0 mm 5 m/s 735 mmHg 81%
    05:00 -10°C° 0 mm 5 m/s 735 mmHg 81%
    06:00 -10°C° 0 mm 5 m/s 735 mmHg 81%
    07:00 -10°C° 0 mm 6 m/s 735 mmHg 80%
    08:00 -10°C° 0 mm 6 m/s 736 mmHg 80%
    09:00 -9°C° 0 mm 6 m/s 736 mmHg 78%
    10:00 -8°C° 0 mm 6 m/s 736 mmHg 76%
    11:00 -6°C° 0 mm 6 m/s 736 mmHg 75%
    12:00 -6°C° 0 mm 6 m/s 736 mmHg 75%
    13:00 -6°C° 0 mm 6 m/s 736 mmHg 75%
    14:00 -6°C° 0 mm 6 m/s 736 mmHg 76%
    15:00 -6°C° 0 mm 5 m/s 737 mmHg 80%
    16:00 -7°C° 0 mm 5 m/s 737 mmHg 85%
    17:00 -7°C° 0 mm 5 m/s 737 mmHg 90%
    18:00 -7°C° 0 mm 4 m/s 738 mmHg 90%
    19:00 -8°C° 0 mm 4 m/s 738 mmHg 89%
    20:00 -8°C° 0 mm 4 m/s 739 mmHg 89%
    21:00 -8°C° 0 mm 4 m/s 739 mmHg 89%
    22:00 -8°C° 0 mm 3 m/s 739 mmHg 88%
    23:00 -8°C° 0 mm 3 m/s 740 mmHg 88%
    Voir plus